Regional Weather Roundup
Issued by NWS

Home | Current Version | Previous Version | Graphics & Text | Print | Product List | Glossary Off
Versions: 1 2 3 4 5 6 7 8 9 10 11 12 13 14 15 16 17 18 19 20 21 22 23 24 25 26 27 28 29 30 31 32 33 34 35 36 37 38 39 40 41 42 43 44 45 46 47 48 49 50

000
ASUS43 KLSX 252307
RWRMO

WEATHER SUMMARY FOR MISSOURI
NATIONAL WEATHER SERVICE SPRINGFIELD MO
600 PM CDT SAT APR 25 2015

NOTE: "FAIR" INDICATES FEW OR NO CLOUDS BELOW 12,000 FEET WITH NO
       SIGNIFICANT WEATHER AND/OR OBSTRUCTIONS TO VISIBILITY.
       CURRENT SKY AND/OR WEATHER CONDITIONS ARE NOT AVAILABLE FOR
       CHILLICOTHE AND FARMINGTON.

MOZ001>031-035>038-043-044-053-054-260000-
...NORTHERN AND WESTERN MISSOURI...

CITY           SKY/WX    TMP DP  RH WIND       PRES   REMARKS
KANSAS CTY INT CLOUDY    51  49  92 N13       29.67R
KANSAS C DTWN  CLOUDY    54  49  83 N13       29.67R
LEE`S SUMMIT   CLOUDY    54  51  90 N15       29.67R
ST JOSEPH      CLOUDY    50  46  86 N13       29.71R
CHILLICOTHE      N/A     51  49  92 N8G21     29.69R
KIRKSVILLE     CLOUDY    50  49  96 NE14      29.68R

$$
MOZ066>068-077>081-088>096-101>105-260000-
...SOUTHWEST MISSOURI...

CITY           SKY/WX    TMP DP  RH WIND       PRES   REMARKS
SPRINGFIELD    PTSUNNY   71  53  52 NW15G28   29.58R
JOPLIN         SUNNY     70  53  54 NW18      29.62R

$$
MOZ032>034-039>042-045>050-055>058-069>072-260000-
...CENTRAL MISSOURI...

CITY           SKY/WX    TMP DP  RH WIND       PRES   REMARKS
COLUMBIA       CLOUDY    58  56  93 N15       29.57R
JEFFERSON CITY PTSUNNY   66  57  72 W10       29.55R
ROLLA          CLOUDY    63  56  78 W9        29.54R
SEDALIA        CLOUDY    58  53  84 N14       29.62R
WHITEMAN AFB   CLOUDY    55  52  88 N16G22    29.62R
WARRENSBURG    CLOUDY    54  50  87 N13G20    29.64R
OSAGE BEACH    PTSUNNY   68  52  56 W14G20    29.56R

$$
MOZ051-052-059>065-260000-
...EAST CENTRAL MISSOURI...

CITY           SKY/WX    TMP DP  RH WIND       PRES   REMARKS
ST LOUIS INTL  LGT RAIN  58  55  90 NE7       29.57R
SPIRIT OF STL  LGT RAIN  57  55  93 N5        29.57R
ST CHARLES     CLOUDY    56  53  90 NE9       29.57R

$$
MOZ072>076-082>087-097>100-106>115-260000-
...SOUTH CENTRAL AND SOUTHEAST MISSOURI...

CITY           SKY/WX    TMP DP  RH WIND       PRES   REMARKS
CAPE GIRARDEAU CLOUDY    76  62  62 W9        29.46R
FARMINGTON     CLOUDY    64  57  77 N7        29.58R
POPLAR BLUFF   CLOUDY    79  49  34 W9        29.47R
WEST PLAINS    PTSUNNY   75  49  39 NW12G22   29.55R

$$



USA.gov is the U.S. government's official web portal to all federal, state and local government web resources and services.